Helicity
18 48 42 49 63 66 61 60 59 71 76 75 78 80 79 81 77 66 48 32 23 14 18 29 40 47 53 60 65 64 71 65 62 53 44 44 49 41 39 41 11 51 48
30 50 38 40 54 56 50 49 42 55 61 61 57 58 64 64 70 67 52 34 24 16 20 33 50 54 60 61 61 68 69 60 58 44 18 39 56 32 41 30 25 65 64
70 61 79 93 86 72 54 44 32 31 42 50 41 33 33 47 55 54 46 37 29 26 29 34 46 48 50 56 62 69 66 63 57 29 -15 3 65 38 38 34 33 42 73
94 112 120 120 113 101 91 77 61 41 33 32 42 42 29 27 30 42 48 44 38 31 34 41 51 49 50 55 59 69 67 62 46 1 9 -6 83 40 37 28 50 53 85
91 110 142 132 107 99 95 90 88 78 60 34 21 20 22 23 27 29 37 42 44 41 42 46 56 55 51 51 57 69 69 61 40 -0 21 15 69 62 48 45 63 47 46
56 93 135 162 154 142 122 112 103 101 92 73 43 26 20 18 22 23 25 23 25 33 46 46 48 51 52 52 58 66 62 51 21 26 19 34 47 80 60 44 68 77 64
70 81 100 156 151 148 150 140 123 111 104 90 79 60 39 20 28 29 22 23 21 12 14 37 39 44 39 45 49 58 55 42 3 11 18 16 68 85 66 45 50 51 51
96 97 100 110 135 151 171 170 166 154 136 112 97 85 70 64 46 26 31 25 20 14 17 30 27 32 28 29 40 46 43 31 26 16 17 29 131 80 68 56 58 46 33
132 146 157 152 138 101 136 162 161 166 157 142 129 113 93 77 56 40 27 29 29 22 19 21 23 22 35 17 24 37 36 33 -5 15 13 18 143 78 57 59 57 55 39
164 184 185 162 130 106 86 125 117 129 139 162 160 153 86 62 74 56 40 39 44 32 29 26 28 29 27 31 20 24 41 32 11 7 24 51 90 69 61 71 69 64 56
178 192 170 151 128 99 76 74 69 81 83 81 93 112 124 98 85 75 89 82 67 53 43 40 38 39 38 30 31 35 31 26 22 30 28 135 89 65 59 70 75 71 59
200 179 136 119 103 74 55 58 55 60 59 72 84 87 72 73 81 98 105 105 76 55 55 59 59 56 60 29 41 42 36 11 25 28 30 122 79 60 57 77 83 79 66
162 145 148 129 113 96 73 52 40 35 39 43 73 78 59 48 48 44 33 41 67 115 82 70 59 59 46 58 49 49 23 24 25 27 34 125 88 69 61 67 100 87 84
166 162 157 150 145 139 90 74 55 34 19 11 10 25 13 11 20 28 35 47 60 62 80 117 109 61 47 60 49 44 44 21 28 24 27 133 102 85 72 60 80 80 95
181 182 189 180 170 150 124 88 71 55 39 28 32 39 42 36 29 21 23 27 32 40 56 75 70 85 100 55 64 53 43 45 29 24 28 105 108 90 75 70 70 79 105
182 200 182 179 158 124 105 88 62 47 35 33 37 51 58 49 45 41 41 45 49 44 47 50 73 102 89 104 72 64 65 57 55 45 41 47 114 113 104 82 66 68 104
201 204 207 189 168 136 101 73 50 52 47 55 56 63 76 80 72 61 56 61 66 56 62 72 81 89 95 96 129 106 73 77 74 70 62 66 75 119 137 120 92 81 95
246 243 227 193 161 117 91 61 49 52 52 63 75 84 98 86 84 70 69 74 76 65 69 81 88 97 105 119 115 115 160 111 76 77 99 96 84 69 107 151 141 124 120
234 222 204 174 157 128 101 68 60 66 69 72 76 76 82 87 91 77 76 83 82 72 73 85 96 94 88 108 127 113 125 129 149 119 116 88 103 101 86 111 166 156 154
238 219 195 163 148 106 89 71 74 82 85 85 86 91 97 95 104 100 100 87 76 76 83 87 79 71 62 73 80 106 119 99 119 122 160 132 129 111 86 86 121 146 163
231 211 192 172 176 136 121 109 70 74 63 69 82 98 108 113 116 112 113 112 105 88 75 62 51 46 51 46 55 92 65 88 91 92 96 146 128 143 132 98 114 136 173
228 196 177 158 133 106 75 69 51 61 62 72 75 74 92 88 90 83 91 90 93 78 71 67 42 13 15 34 -5 9 23 123 115 266 187 122 163 158 213 96 99 108 139
208 184 155 132 105 94 72 61 57 53 59 78 78 66 65 59 54 56 62 61 65 66 66 58 51 53 31 25 36 31 -7 75 154 171 245 296 182 172 218 156 102 115 126
187 139 126 94 86 74 79 75 89 92 100 76 58 57 52 59 60 69 72 71 68 65 55 52 49 45 39 37 71 74 91 98 26 -40 111 236 252 243 140 203 126 142 170
164 132 100 88 87 89 92 100 92 90 61 47 40 34 32 38 43 57 66 67 71 67 64 53 39 34 52 75 98 105 110 94 92 81 2 22 141 101 41 102 113 196 185
147 124 111 100 96 81 81 82 76 60 39 31 31 21 34 33 43 52 65 64 73 79 86 83 72 73 73 72 66 67 62 60 58 76 86 75 60 96 220 155 91 192 217
Wind_Speed
33 33 33 33 34 34 34 35 36 37 39 40 41 41 41 40 38 37 35 33 33 34 35 35 36 36 35 35 35 35 36 37 39 39 39 39 39 37 36 35 32 34 37
30 33 33 32 32 33 33 34 33 35 36 37 38 38 39 39 37 36 34 33 33 34 35 35 35 34 34 34 33 34 36 37 38 39 38 34 37 38 38 39 40 38 38
39 35 35 35 34 33 33 33 33 33 33 35 35 36 36 37 37 35 34 33 33 34 34 35 35 34 34 33 33 34 35 37 37 38 36 34 38 37 37 38 39 37 40
40 40 39 37 36 35 35 35 34 34 34 33 33 33 33 34 34 33 33 33 33 34 34 34 34 34 33 33 32 33 34 35 35 34 33 35 35 34 36 36 38 37 40
40 40 40 39 37 36 35 34 35 35 36 35 35 34 34 33 32 32 31 30 30 31 32 32 33 33 32 31 31 31 32 33 31 30 35 32 32 31 32 34 35 36 37
39 40 41 41 40 39 38 37 36 35 35 37 39 37 35 35 35 34 32 30 29 29 29 30 31 31 30 28 28 29 29 31 28 32 31 30 30 26 27 29 31 33 33
40 40 42 44 43 42 42 40 39 39 38 37 38 39 40 38 36 36 35 33 32 31 31 30 31 29 28 27 24 26 28 29 27 32 29 25 27 23 22 23 25 26 28
41 42 43 44 45 45 45 44 44 44 43 43 43 43 43 43 42 40 36 37 36 36 36 34 33 31 29 27 24 22 24 25 26 29 27 22 23 20 17 19 21 22 23
42 43 45 45 45 45 47 47 46 46 46 46 47 48 49 48 45 42 37 34 33 36 36 34 36 35 31 29 25 21 21 21 22 26 27 21 18 16 13 14 17 17 19
44 45 46 47 47 46 46 49 49 49 49 49 50 53 51 47 49 47 47 43 38 37 36 34 31 33 36 29 25 23 21 21 16 18 20 22 20 15 10 11 13 14 14
45 47 48 48 48 48 48 49 49 50 50 51 52 55 54 52 52 51 52 55 55 53 48 39 35 33 32 35 26 21 22 18 15 15 15 20 18 11 8 7 9 9 9
45 47 48 49 50 49 49 50 50 51 51 53 54 56 54 54 55 56 56 58 57 52 50 43 37 35 36 34 34 26 28 24 21 17 14 16 15 8 4 4 5 6 7
42 45 49 50 51 52 52 52 53 52 52 52 56 59 57 57 59 59 60 58 59 61 58 52 46 38 37 37 36 33 33 29 28 24 18 15 12 7 5 3 2 2 2
41 44 49 51 52 53 51 52 53 54 54 54 56 60 58 58 60 62 62 64 62 62 65 63 61 54 47 46 41 41 36 34 33 25 26 19 15 10 9 8 6 4 3
39 44 48 52 52 53 53 53 54 54 55 56 58 61 62 61 62 63 63 64 64 65 66 68 68 69 68 53 49 45 40 38 38 35 32 23 21 18 15 14 13 9 5
39 43 47 51 52 52 52 53 53 55 56 57 58 63 64 64 66 66 66 66 67 70 70 70 70 73 73 75 68 60 54 48 44 40 35 36 28 26 22 20 19 15 12
39 42 47 50 54 54 54 55 55 57 57 59 60 62 66 67 69 69 68 69 72 74 74 73 73 74 76 78 80 79 69 63 56 52 45 46 39 33 32 29 26 22 18
40 45 48 51 54 54 56 55 56 59 59 61 63 64 69 69 70 70 69 71 76 75 75 75 76 78 78 79 82 84 84 76 71 65 57 55 49 45 36 38 34 31 25
41 45 49 52 56 57 57 56 57 58 60 61 63 66 69 69 71 72 70 74 78 76 76 78 80 81 84 84 86 85 87 89 86 81 77 65 61 57 51 41 43 40 35
42 46 49 52 58 58 58 57 56 60 62 63 64 67 69 70 73 73 72 75 76 79 80 83 86 85 86 88 92 94 93 88 88 89 84 84 74 67 63 62 46 49 45
43 47 51 54 59 60 61 64 61 68 66 66 66 67 70 72 75 74 75 77 78 80 83 84 87 89 90 89 94 96 94 96 96 89 88 86 83 74 70 68 66 53 55
43 47 50 54 57 60 60 62 61 65 64 65 69 69 72 73 74 74 76 78 80 82 82 84 86 90 89 86 91 101 103 95 88 87 85 81 85 83 80 79 75 64 64
41 46 49 53 55 59 62 63 64 63 65 69 72 71 74 73 73 73 74 76 78 79 82 84 85 87 94 88 82 82 96 99 105 89 91 94 87 83 87 73 83 75 73
38 42 47 51 55 58 63 65 69 71 74 73 72 73 73 72 71 72 74 76 77 78 80 82 83 86 87 93 87 80 83 90 100 115 96 99 95 91 85 88 82 83 82
37 41 46 50 56 60 63 66 69 71 72 72 72 74 71 70 69 70 72 75 76 76 79 82 85 84 85 87 88 87 91 91 93 108 127 111 102 96 89 86 90 84 82
36 41 46 51 56 59 63 66 69 72 74 74 74 74 73 72 70 71 75 75 76 77 78 79 81 78 84 86 86 89 93 95 97 100 113 119 119 113 105 100 95 88 87
Wind_Direction
46 54 55 53 56 57 54 52 53 55 58 62 61 53 48 46 44 39 32 23 14 9 7 7 9 14 20 21 22 23 21 18 16 19 21 23 23 22 24 24 33 28 17
44 45 44 47 49 52 49 44 45 48 52 53 56 57 50 41 38 34 29 21 15 9 6 9 14 17 18 19 20 18 16 15 16 17 19 29 25 23 22 21 11 19 21
36 38 29 16 17 22 30 35 37 37 41 43 45 45 48 49 41 31 24 19 17 13 9 7 7 9 10 12 12 11 12 13 14 15 19 18 22 23 23 24 23 31 30
25 15 17 16 13 12 12 12 13 18 22 31 36 38 38 38 41 44 38 27 18 12 9 9 8 6 7 8 8 9 9 10 12 16 18 17 22 25 26 29 25 30 33
15 14 11 13 14 12 10 5 1 1 3 8 13 16 18 23 29 29 31 32 30 26 21 16 12 10 10 10 10 12 13 15 20 26 15 20 26 31 32 32 34 36 38
19 13 7 6 5 5 4 0 358 358 358 353 349 355 360 2 2 6 12 18 21 19 19 15 11 8 10 13 12 12 13 12 19 11 17 21 22 36 39 37 31 34 40
14 13 12 6 4 2 359 358 356 353 352 350 347 346 344 346 350 351 354 357 0 3 4 6 5 7 6 7 9 8 8 8 12 2 9 16 19 35 39 39 37 43 48
6 5 4 3 2 359 355 351 349 346 345 343 339 338 337 337 337 339 343 343 344 345 347 349 353 355 357 358 2 7 7 7 7 1 3 11 17 29 41 44 41 46 52
4 359 356 355 354 356 354 347 345 343 340 338 336 333 330 329 332 334 337 339 340 338 338 340 339 340 345 347 350 357 0 4 3 0 358 4 18 28 41 47 51 62 60
1 357 353 349 349 352 352 349 347 344 341 337 333 329 329 332 329 329 327 330 332 331 331 333 335 334 332 337 340 344 349 352 357 1 1 357 1 16 51 61 54 63 65
1 357 353 350 349 350 354 352 350 347 345 343 339 333 331 330 328 327 326 322 319 319 320 323 324 324 327 324 326 329 335 342 349 353 355 350 350 7 34 59 57 55 53
358 358 357 355 352 351 352 352 353 351 349 345 342 338 337 334 332 328 326 323 321 322 320 319 317 318 317 319 320 319 318 322 328 333 338 343 339 338 9 51 65 56 49
3 0 357 356 356 353 353 353 354 353 351 348 344 339 337 335 332 330 328 328 325 322 320 319 316 313 312 312 314 314 315 315 315 317 317 320 318 301 286 293 144 85 71
2 2 360 358 358 358 360 1 359 359 358 357 355 350 347 343 337 333 331 327 325 324 319 318 315 313 309 307 304 303 302 302 305 306 308 300 293 267 254 250 225 190 171
360 1 360 1 2 360 359 357 357 355 353 350 349 348 346 343 340 337 335 332 329 326 321 316 312 309 306 303 301 298 293 292 292 293 299 290 283 269 249 237 222 221 219
358 356 357 358 358 358 358 356 354 355 353 352 349 345 342 340 337 334 332 331 330 327 323 319 314 308 306 303 299 297 293 290 287 284 284 289 276 264 251 244 238 236 230
355 356 353 351 349 349 348 349 348 347 347 347 346 345 341 339 335 332 330 329 327 325 323 321 316 312 306 302 298 296 292 290 287 283 280 282 282 266 253 242 240 247 242
352 349 351 351 350 349 348 347 343 344 345 345 343 342 340 339 337 332 329 328 326 324 323 322 319 315 311 305 299 294 292 292 287 284 281 278 277 278 265 249 238 238 241
347 346 345 346 344 345 346 346 346 346 346 345 343 341 339 338 336 333 330 327 325 323 322 320 317 315 311 307 302 297 292 287 288 284 281 277 274 275 275 265 246 238 235
345 344 344 345 344 345 346 346 347 345 344 344 343 342 341 338 335 332 329 327 326 322 320 318 315 314 310 307 303 298 293 290 285 282 283 277 275 272 271 274 265 255 234
343 343 344 344 344 345 345 344 342 340 341 342 343 343 340 337 335 332 329 327 326 322 320 318 316 313 311 310 304 300 296 290 285 282 280 276 273 269 268 268 267 264 261
341 342 343 345 345 346 345 345 344 342 341 341 339 338 338 336 334 332 330 328 326 324 322 321 319 315 312 311 305 300 293 292 289 288 283 277 272 270 269 267 264 259 262
339 341 342 344 345 346 345 344 345 345 342 339 338 338 337 336 335 333 331 329 328 326 324 323 321 318 313 311 308 302 294 287 290 288 285 283 279 273 268 259 261 261 258
337 342 343 344 345 346 346 344 343 341 338 338 338 337 337 337 336 335 333 332 330 328 326 325 324 320 316 310 307 303 296 292 287 283 283 282 282 280 270 261 262 260 258
337 339 341 343 344 345 345 345 342 340 339 338 338 336 337 338 338 338 337 334 332 330 328 326 324 322 319 312 307 303 297 294 290 283 278 278 279 276 277 269 262 260 258
334 337 340 341 342 344 344 344 342 340 338 337 336 335 336 336 337 338 337 335 334 332 330 329 327 327 322 316 309 304 297 292 289 285 280 277 275 274 274 272 268 263 257